SCP
0 0 0 0 0 0 0 0 0 0 0 0 0 0 0 0 0 0 0 0 0 0 0 0 0 0 0 0 0 0 -0 -0 -0 -0 -0 -0 -0 0 0 0 0 -0 -0 -0 -0 -0 -0 -0 -0
0 0 0 0 0 0 0 0 0 0 0 0 0 0 0 0 0 0 -0 0 0 0 1 0 0 0 0 0 0 0 0 0 0 0 0 0 0 0 0 0 0 -0 -0 -0 -0 -0 -0 -0 -0
0 0 0 0 0 0 0 0 0 0 0 0 0 0 0 0 0 0 0 -0 -0 0 1 0 0 0 0 0 0 0 0 0 0 0 0 0 0 0 0 0 0 0 -0 -0 -0 -0 -0 -0 -0
0 0 0 0 0 0 0 0 0 0 0 0 0 0 0 0 0 0 0 -0 -0 0 1 0 0 0 0 0 0 0 0 0 0 0 0 0 0 0 0 0 0 0 0 -0 0 -0 -0 -0 -0
0 0 0 0 0 0 0 0 0 0 0 0 0 0 0 0 0 0 0 -0 -0 0 1 1 1 0 0 0 0 0 0 0 0 0 0 0 0 0 0 0 0 0 0 0 0 0 -0 0 0
0 0 0 0 0 0 0 0 0 0 0 0 0 0 0 0 0 1 0 0 0 0 1 1 1 1 0 0 0 0 0 0 0 0 0 0 0 0 0 0 0 0 0 0 0 0 0 0 0
0 0 0 0 0 0 0 0 0 0 0 0 0 0 0 0 0 0 0 0 0 1 1 1 1 0 0 0 0 0 0 0 0 0 0 0 0 0 0 0 0 0 0 0 0 0 0 0 0
0 0 0 0 0 0 0 0 0 0 0 0 0 0 0 0 1 0 0 1 0 1 1 1 1 1 0 0 0 0 0 0 0 0 0 0 0 0 0 0 0 0 0 0 0 0 0 0 0
0 0 0 0 0 0 0 0 0 0 0 0 0 0 0 0 1 0 1 1 1 1 1 0 1 1 0 0 0 0 0 0 0 0 0 0 0 0 0 0 0 0 0 0 0 0 0 0 0
0 0 0 0 0 0 0 0 0 0 0 0 0 0 0 0 0 0 0 1 1 1 0 0 0 1 0 0 0 0 0 0 0 0 0 0 0 0 0 0 0 0 0 0 0 0 0 0 0
0 0 0 0 0 0 0 0 0 0 0 0 0 0 0 0 0 0 0 0 0 1 1 0 0 1 1 0 0 0 0 0 0 0 0 0 0 0 0 0 0 0 0 0 0 0 0 0 0
0 0 0 0 0 0 0 0 0 0 0 0 0 0 0 0 0 0 0 0 0 0 1 0 0 1 1 0 0 0 0 0 0 0 0 0 0 0 0 0 0 0 0 0 0 0 0 0 0
0 0 0 0 0 0 0 0 0 0 0 0 0 0 0 0 0 0 0 0 0 0 0 1 0 1 1 0 0 1 1 1 0 0 0 0 0 0 0 0 0 0 0 0 0 0 0 0 0
0 0 0 0 0 0 0 0 0 0 0 0 0 0 0 0 0 0 0 0 0 0 0 0 0 1 1 0 0 1 0 0 1 0 0 0 0 0 0 0 0 0 0 0 0 0 0 0 0
0 0 0 0 0 0 0 0 0 0 0 0 0 0 0 0 0 0 0 0 0 0 0 0 0 1 1 0 0 0 0 0 0 0 0 0 0 0 0 0 0 0 0 0 0 0 0 0 0
0 0 0 0 0 0 0 0 0 0 0 -0 0 0 0 0 0 0 0 0 0 0 0 0 0 0 0 0 0 0 0 0 0 0 0 0 0 0 0 0 0 0 0 0 0 0 0 0 0
0 0 0 0 0 0 -0 0 0 0 0 0 0 0 0 -0 0 0 0 0 0 0 0 0 0 0 0 0 0 0 0 0 0 0 0 0 0 0 0 0 0 0 0 0 0 0 0 0 0
0 0 0 0 0 0 -0 0 0 0 0 -0 0 0 0 -0 0 0 0 0 0 0 0 0 0 0 0 0 0 0 0 0 0 0 0 0 0 0 0 0 0 0 0 0 0 0 0 0 0
0 -0 -0 -0 -0 0 0 0 0 0 0 0 0 0 0 -0 0 0 0 0 0 0 0 0 0 0 0 0 0 0 0 0 0 0 0 0 0 0 0 0 0 0 0 0 0 0 0 0 0
0 0 -0 0 0 0 0 0 0 0 0 0 0 0 0 0 -0 0 0 0 0 0 0 0 0 0 0 0 0 0 0 0 0 0 0 0 0 0 0 0 0 0 0 0 0 0 0 0 0
0 -0 -0 -0 -0 -0 0 0 0 0 0 0 0 0 0 0 -0 -0 0 0 0 0 0 0 0 0 0 0 0 0 0 0 0 0 0 0 0 0 0 0 0 0 0 0 0 0 0 0 0
-0 0 -0 -0 0 0 0 0 0 0 -0 -0 0 0 0 0 -0 -0 0 0 0 0 0 0 0 0 0 0 0 0 0 0 0 0 0 0 0 0 0 0 0 0 0 0 0 0 0 0 0
0 0 0 0 0 -0 0 0 -0 0 0 0 0 0 0 -0 -0 -0 0 0 0 0 0 0 0 0 0 0 0 0 0 0 0 0 0 0 0 0 0 0 0 0 0 0 0 0 0 0 0
0 0 0 0 0 0 0 0 0 0 -0 0 0 0 0 -0 -0 -0 0 0 0 0 0 0 0 0 0 0 0 0 0 0 0 0 0 0 0 0 0 0 0 0 0 0 0 0 0 0 0
0 0 0 0 0 0 0 0 0 0 0 -0 0 0 0 -0 -0 0 0 0 0 0 0 0 0 0 0 0 0 0 0 0 0 0 0 0 0 0 0 0 0 0 0 0 0 0 0 0 0
0 0 0 0 0 0 0 0 0 0 0 0 0 0 0 0 0 0 0 0 0 0 0 0 0 0 0 0 0 0 0 0 0 0 0 0 0 0 0 0 0 0 0 0 0 0 0 0 0
0 0 0 0 0 0 0 0 0 0 -0 -0 0 0 0 0 0 0 0 0 0 0 0 0 0 0 0 0 0 0 0 0 0 0 0 0 0 0 0 0 0 0 0 0 0 0 0 0 0
0 0 0 0 0 0 0 0 0 0 -0 0 0 0 0 0 0 0 0 0 0 0 0 0 0 0 0 0 0 0 0 0 0 0 0 0 0 0 0 0 0 0 0 0 0 0 0 0 0
0 0 0 0 0 0 0 0 -0 0 0 0 0 0 0 0 0 0 0 0 0 0 0 0 0 0 0 0 0 0 0 0 0 0 0 0 0 0 0 0 0 0 0 0 0 0 0 0 0
0 0 0 0 0 0 0 0 -0 0 -0 0 0 0 0 0 0 0 0 0 0 0 0 0 0 0 0 0 0 0 0 0 0 0 0 0 0 0 0 0 0 0 0 0 0 0 0 0 0
Wind_Speed_500mb
20 16 13 13 15 16 36 37 33 24 12 6 5 18 15 33 17 8 2 11 13 35 43 49 47 46 44 43 40 39 37 38 38 33 27 25 24 23 21 18 22 18 21 31 29 23 33 25 29
20 13 13 23 17 30 34 37 40 30 16 6 5 11 18 23 30 9 10 5 19 38 45 50 49 47 46 44 42 40 38 38 36 31 27 26 25 22 23 27 30 30 23 26 21 21 28 27 23
12 14 23 13 32 41 40 35 31 33 37 21 15 13 17 10 5 6 10 14 18 39 45 49 49 48 48 47 43 40 39 37 33 30 28 28 27 22 19 18 22 23 25 24 20 24 25 23 21
7 16 23 28 50 46 52 43 20 32 45 34 29 21 18 11 3 5 19 17 18 41 46 53 50 48 48 47 44 42 41 38 35 30 29 29 27 21 16 15 17 29 25 21 22 25 24 23 22
15 26 25 40 60 59 42 35 41 30 38 38 31 31 18 9 5 8 14 13 26 45 52 53 51 49 46 46 45 42 41 39 37 32 33 31 26 21 16 13 18 28 28 21 25 24 22 20 20
21 25 28 43 56 52 48 53 36 39 41 47 24 28 21 10 9 12 15 14 30 48 51 53 50 49 48 46 44 42 41 39 38 37 35 35 26 23 16 13 19 26 30 17 21 22 22 19 18
30 23 44 52 50 47 47 48 43 40 46 51 36 31 23 10 5 14 11 13 33 48 49 47 53 49 47 45 44 43 43 41 40 38 37 37 30 26 20 13 19 23 24 21 21 21 20 18 16
22 19 50 45 43 60 44 42 52 52 53 49 39 27 27 13 3 9 7 12 25 43 53 51 53 53 50 46 44 43 44 44 44 42 41 40 34 30 21 17 17 21 23 20 22 21 19 16 14
15 16 30 45 43 41 35 40 29 27 18 36 59 61 21 3 3 3 6 11 28 37 55 51 55 55 52 47 47 46 46 45 46 46 44 42 39 35 25 20 16 19 24 22 22 21 18 15 13
21 24 28 27 34 27 34 20 25 24 26 35 41 25 12 7 7 11 11 13 27 41 50 53 52 56 53 44 45 49 48 50 51 50 49 45 42 40 30 28 22 19 24 24 24 22 19 16 13
15 35 33 29 26 22 31 33 28 32 32 43 32 36 16 18 15 15 19 18 25 37 45 52 56 54 56 54 47 49 40 47 51 50 52 50 43 45 34 34 28 23 27 28 27 24 21 18 14
23 36 37 38 39 35 34 39 43 46 42 44 24 31 32 30 23 21 21 25 26 32 46 54 59 59 56 54 53 48 44 47 53 52 52 57 57 46 35 30 26 29 31 27 28 26 21 22 20
33 38 45 41 42 45 49 53 51 68 54 47 46 44 45 44 39 29 26 27 26 34 41 52 65 68 60 62 55 54 55 55 53 53 57 61 53 46 38 33 30 29 31 35 31 25 25 22 21
35 37 44 47 51 47 42 50 47 63 50 60 63 60 49 44 41 36 31 27 28 34 40 48 62 64 73 60 54 59 60 60 57 53 58 55 51 42 37 35 34 33 33 34 33 28 23 22 21
28 34 38 45 46 44 39 45 58 64 64 66 65 62 57 53 48 46 42 36 29 28 38 37 59 69 69 63 60 57 65 66 65 54 59 63 45 42 37 34 34 33 35 36 34 30 25 21 19
37 31 33 17 9 18 16 42 36 39 42 57 58 57 62 62 61 50 46 44 39 35 31 46 53 78 72 63 65 64 69 71 72 66 66 63 53 43 43 37 33 35 37 40 36 33 28 24 21
20 26 32 35 29 23 26 40 26 22 36 43 47 48 47 47 54 59 49 46 44 40 38 43 51 82 75 60 57 67 67 73 71 66 64 62 57 50 45 39 36 37 40 40 37 32 31 29 27
26 21 30 33 21 16 34 54 42 48 42 38 41 45 45 47 59 51 51 43 41 41 38 41 44 55 59 62 61 77 68 66 68 73 70 69 65 60 52 44 40 42 44 43 42 35 35 30 29
44 46 52 41 37 32 44 51 50 52 54 53 52 51 51 50 48 43 43 52 43 41 40 39 49 47 67 71 72 80 76 71 67 76 79 71 65 62 56 51 45 46 47 49 45 41 34 36 34
43 47 53 49 43 37 43 53 49 48 51 63 59 55 55 50 48 54 51 45 49 41 39 39 50 52 68 77 69 77 70 71 79 77 79 75 72 68 64 58 53 51 49 52 49 45 41 40 46
41 44 49 49 46 29 29 52 54 61 60 68 73 65 59 54 48 49 46 43 42 42 46 44 49 50 68 59 62 57 65 74 62 67 81 83 74 76 74 67 60 55 54 57 57 55 51 50 51
44 46 50 49 34 27 30 24 33 32 36 47 66 61 62 56 51 53 47 42 43 49 52 48 50 61 63 62 61 66 67 68 68 73 84 90 86 80 78 72 65 62 58 56 58 59 58 56 55
30 30 32 28 26 29 38 24 50 31 42 45 43 61 59 54 53 57 53 40 47 45 46 45 51 61 69 63 58 63 77 62 68 81 78 80 81 89 83 80 72 68 66 62 63 62 62 63 63
24 11 9 11 9 18 28 26 34 18 36 37 40 55 55 51 52 56 46 51 43 42 43 44 46 57 56 65 63 68 61 70 80 87 77 81 84 88 90 84 77 74 72 68 69 68 65 69 70
16 6 7 10 13 14 5 14 30 17 33 42 40 41 50 46 53 43 51 49 41 39 43 42 40 47 45 56 57 62 43 61 45 57 75 82 87 92 90 88 83 82 78 71 71 72 73 75 78
25 10 9 11 7 13 5 13 5 18 41 41 51 25 38 36 37 39 48 43 39 37 39 40 38 42 43 38 43 49 30 47 58 67 32 76 77 86 81 77 84 82 80 77 76 77 75 76 79
13 9 15 11 14 18 15 6 7 32 32 34 38 36 23 31 37 46 42 39 34 33 34 37 39 40 39 37 35 33 38 48 47 48 49 46 44 57 80 73 87 84 83 81 83 83 78 75 82
8 16 11 9 9 12 5 9 21 36 33 11 21 29 37 36 39 38 36 35 32 33 34 36 37 35 28 26 26 24 25 27 36 34 35 43 54 56 85 74 69 74 88 95 86 79 79 74 84
31 11 11 8 8 8 8 8 23 30 28 20 18 34 38 38 39 38 38 37 36 36 33 35 34 30 23 18 15 7 2 6 7 13 22 29 40 49 57 69 75 75 75 82 82 60 51 58 61
30 30 6 7 9 8 3 9 31 25 30 24 35 35 42 45 46 46 50 47 47 46 43 39 37 31 26 20 16 14 7 5 2 4 10 10 11 21 28 25 20 18 28 25 27 31 42 43 46
Wind_Direction_500mb
239 287 277 274 249 228 251 244 253 251 254 220 281 214 230 239 220 243 350 206 174 175 202 183 183 180 178 178 177 180 180 178 174 170 164 157 154 154 158 167 142 133 144 151 147 138 139 140 137
234 274 246 253 245 247 244 235 240 237 246 159 211 222 241 248 246 297 342 221 171 175 199 187 185 183 178 179 182 185 183 183 180 179 175 164 155 152 144 139 144 149 145 146 150 141 148 148 146
248 231 243 229 237 242 249 241 225 236 239 220 265 233 269 232 227 288 314 329 182 187 194 192 185 186 182 182 184 187 188 189 188 188 183 172 164 149 147 155 157 165 149 149 157 147 145 147 149
244 218 248 244 240 238 244 255 224 235 248 225 255 271 230 263 305 303 311 309 183 195 190 195 189 189 189 186 186 188 190 189 190 192 187 177 169 156 150 171 161 155 165 162 152 146 146 144 139
224 244 236 237 243 243 245 233 249 236 245 241 224 239 227 142 297 320 309 300 184 198 194 195 192 191 193 191 188 189 189 189 193 185 184 181 172 162 166 173 169 167 157 170 153 148 150 151 145
232 238 235 238 245 245 243 243 220 249 243 243 209 251 248 250 340 309 291 252 191 197 196 197 195 192 196 197 193 192 190 192 189 188 190 188 184 178 176 165 173 164 173 166 159 154 154 153 152
243 230 245 253 259 259 248 230 215 227 237 239 235 249 246 217 302 326 272 208 194 196 190 197 195 193 197 200 200 196 197 197 197 194 195 194 192 196 182 175 175 181 184 184 171 163 162 162 160
264 254 258 252 257 262 268 254 231 232 242 243 232 230 248 242 342 336 339 202 212 198 194 202 196 195 197 200 205 203 205 203 205 200 198 199 197 204 196 194 186 195 199 191 182 176 173 170 170
252 249 248 252 256 259 262 267 236 252 284 257 246 248 242 21 243 302 347 226 215 216 203 199 198 200 199 202 204 205 209 208 208 205 202 201 202 203 204 209 210 208 203 199 191 188 186 185 186
236 242 261 284 285 290 292 300 296 272 261 242 252 227 191 339 314 245 232 242 235 218 214 207 203 200 199 196 206 203 209 207 207 203 200 201 205 204 201 211 215 225 201 198 198 196 195 196 206
253 250 282 301 287 310 294 288 272 263 255 249 237 232 261 304 298 277 246 239 240 236 224 219 210 204 203 199 205 200 204 202 204 200 198 198 201 205 190 209 211 207 199 203 203 202 202 194 198
272 265 267 277 277 288 279 286 276 270 263 262 277 282 284 286 282 276 268 249 250 247 239 228 220 208 208 207 201 199 197 201 200 199 197 196 201 205 191 214 209 205 207 202 206 208 202 213 203
268 267 272 274 268 270 274 270 273 267 260 260 263 269 274 280 279 276 272 266 251 249 250 235 226 221 209 204 205 195 199 202 199 198 198 199 200 206 196 203 198 221 208 202 205 205 215 214 219
287 291 285 278 272 263 265 268 263 255 259 257 258 257 260 260 260 260 263 267 259 252 249 238 230 225 224 214 223 211 206 205 202 200 203 204 202 211 204 205 204 205 208 207 207 204 212 219 224
284 282 281 267 259 253 255 268 255 263 257 256 254 252 252 255 254 252 254 259 259 254 261 248 231 226 225 230 232 224 215 209 205 207 208 203 198 211 207 210 211 209 210 205 207 202 204 211 219
273 281 274 269 318 241 207 260 267 263 235 242 246 252 251 247 247 250 252 254 254 258 249 250 236 231 225 218 229 232 219 217 211 212 214 215 213 210 214 217 215 212 215 210 209 206 203 205 210
233 266 270 280 254 241 214 270 269 265 250 248 244 250 252 247 247 244 248 251 250 250 253 248 249 238 229 223 232 238 228 218 216 212 218 217 212 213 219 221 223 220 217 212 209 208 206 204 202
266 249 257 266 271 237 244 256 266 270 260 250 251 255 255 253 246 247 243 245 246 244 250 251 246 231 233 225 229 226 220 217 215 218 216 219 216 218 222 226 226 226 220 215 212 208 209 205 198
272 278 280 277 281 267 257 261 266 270 268 259 253 251 253 250 248 251 251 244 246 246 250 249 249 234 228 229 222 223 227 229 212 222 227 226 225 226 227 229 232 231 226 223 219 213 211 198 201
253 260 262 275 268 260 263 265 273 273 270 261 257 250 250 251 248 250 247 249 243 240 244 245 244 239 231 220 225 226 235 234 222 225 231 228 230 232 232 231 237 237 229 224 220 214 209 210 210
253 253 264 265 277 262 261 267 258 261 256 254 252 249 248 249 240 246 242 240 231 239 245 234 240 232 222 221 225 233 233 227 223 230 236 233 231 235 233 234 236 238 234 230 225 220 208 211 221
267 255 263 263 263 262 192 276 262 267 252 239 246 242 239 241 238 241 239 236 233 234 239 231 229 226 229 221 224 228 227 225 235 232 229 232 231 236 236 235 235 238 239 234 230 223 219 213 220
279 286 275 271 267 276 251 264 276 268 260 253 242 236 235 233 228 231 230 231 234 233 230 226 228 227 224 230 227 230 230 228 238 230 228 234 235 245 236 234 234 238 240 236 232 230 224 223 221
283 263 242 239 243 248 249 227 282 283 262 260 245 238 234 226 220 223 218 228 232 229 225 221 220 227 228 219 227 232 248 247 244 240 239 232 236 243 239 235 234 239 240 240 238 235 233 231 229
222 201 249 224 209 251 109 246 245 314 329 303 291 250 247 217 219 201 212 223 225 219 214 217 213 220 217 223 226 228 242 242 231 231 241 238 237 235 241 237 234 238 241 242 241 238 238 238 237
258 213 240 283 262 291 83 242 288 348 321 286 266 245 277 194 170 185 206 208 210 206 201 201 201 210 223 220 231 226 216 229 238 246 259 224 240 236 240 246 239 240 243 242 240 240 241 240 242
356 242 293 280 255 269 246 247 232 341 311 276 231 231 161 147 168 185 189 189 188 181 179 183 174 184 193 202 208 211 216 217 232 243 252 250 247 252 245 250 249 242 243 242 242 240 242 244 247
258 296 259 194 264 263 204 72 338 334 342 51 124 110 111 147 159 163 166 160 161 166 165 161 160 167 177 181 191 207 226 244 251 252 256 257 260 264 241 241 245 255 248 244 241 237 243 249 256
329 280 243 286 238 298 1 41 342 350 6 14 82 96 108 123 133 141 140 136 139 139 142 140 144 146 152 151 146 165 233 253 254 263 275 274 258 252 228 238 238 238 235 237 235 235 245 259 252
353 354 337 281 44 342 59 45 349 13 24 23 53 72 96 108 123 122 120 115 119 120 122 119 119 127 125 124 117 105 96 98 109 147 204 201 209 200 184 194 220 238 229 250 242 255 245 240 216
Wind_Speed_850mb
20 16 13 13 15 16 36 37 33 24 12 6 5 18 15 33 17 8 2 11 13 35 43 49 47 46 44 43 40 39 37 38 38 33 27 25 24 23 21 18 22 18 21 31 29 23 33 25 29
20 13 13 23 17 30 34 37 40 30 16 6 5 11 18 23 30 9 10 5 19 38 45 50 49 47 46 44 42 40 38 38 36 31 27 26 25 22 23 27 30 30 23 26 21 21 28 27 23
12 14 23 13 32 41 40 35 31 33 37 21 15 13 17 10 5 6 10 14 18 39 45 49 49 48 48 47 43 40 39 37 33 30 28 28 27 22 19 18 22 23 25 24 20 24 25 23 21
7 16 23 28 50 46 52 43 20 32 45 34 29 21 18 11 3 5 19 17 18 41 46 53 50 48 48 47 44 42 41 38 35 30 29 29 27 21 16 15 17 29 25 21 22 25 24 23 22
15 26 25 40 60 59 42 35 41 30 38 38 31 31 18 9 5 8 14 13 26 45 52 53 51 49 46 46 45 42 41 39 37 32 33 31 26 21 16 13 18 28 28 21 25 24 22 20 20
21 25 28 43 56 52 48 53 36 39 41 47 24 28 21 10 9 12 15 14 30 48 51 53 50 49 48 46 44 42 41 39 38 37 35 35 26 23 16 13 19 26 30 17 21 22 22 19 18
30 23 44 52 50 47 47 48 43 40 46 51 36 31 23 10 5 14 11 13 33 48 49 47 53 49 47 45 44 43 43 41 40 38 37 37 30 26 20 13 19 23 24 21 21 21 20 18 16
22 19 50 45 43 60 44 42 52 52 53 49 39 27 27 13 3 9 7 12 25 43 53 51 53 53 50 46 44 43 44 44 44 42 41 40 34 30 21 17 17 21 23 20 22 21 19 16 14
15 16 30 45 43 41 35 40 29 27 18 36 59 61 21 3 3 3 6 11 28 37 55 51 55 55 52 47 47 46 46 45 46 46 44 42 39 35 25 20 16 19 24 22 22 21 18 15 13
21 24 28 27 34 27 34 20 25 24 26 35 41 25 12 7 7 11 11 13 27 41 50 53 52 56 53 44 45 49 48 50 51 50 49 45 42 40 30 28 22 19 24 24 24 22 19 16 13
15 35 33 29 26 22 31 33 28 32 32 43 32 36 16 18 15 15 19 18 25 37 45 52 56 54 56 54 47 49 40 47 51 50 52 50 43 45 34 34 28 23 27 28 27 24 21 18 14
23 36 37 38 39 35 34 39 43 46 42 44 24 31 32 30 23 21 21 25 26 32 46 54 59 59 56 54 53 48 44 47 53 52 52 57 57 46 35 30 26 29 31 27 28 26 21 22 20
33 38 45 41 42 45 49 53 51 68 54 47 46 44 45 44 39 29 26 27 26 34 41 52 65 68 60 62 55 54 55 55 53 53 57 61 53 46 38 33 30 29 31 35 31 25 25 22 21
35 37 44 47 51 47 42 50 47 63 50 60 63 60 49 44 41 36 31 27 28 34 40 48 62 64 73 60 54 59 60 60 57 53 58 55 51 42 37 35 34 33 33 34 33 28 23 22 21
28 34 38 45 46 44 39 45 58 64 64 66 65 62 57 53 48 46 42 36 29 28 38 37 59 69 69 63 60 57 65 66 65 54 59 63 45 42 37 34 34 33 35 36 34 30 25 21 19
37 31 33 17 9 18 16 42 36 39 42 57 58 57 62 62 61 50 46 44 39 35 31 46 53 78 72 63 65 64 69 71 72 66 66 63 53 43 43 37 33 35 37 40 36 33 28 24 21
20 26 32 35 29 23 26 40 26 22 36 43 47 48 47 47 54 59 49 46 44 40 38 43 51 82 75 60 57 67 67 73 71 66 64 62 57 50 45 39 36 37 40 40 37 32 31 29 27
26 21 30 33 21 16 34 54 42 48 42 38 41 45 45 47 59 51 51 43 41 41 38 41 44 55 59 62 61 77 68 66 68 73 70 69 65 60 52 44 40 42 44 43 42 35 35 30 29
44 46 52 41 37 32 44 51 50 52 54 53 52 51 51 50 48 43 43 52 43 41 40 39 49 47 67 71 72 80 76 71 67 76 79 71 65 62 56 51 45 46 47 49 45 41 34 36 34
43 47 53 49 43 37 43 53 49 48 51 63 59 55 55 50 48 54 51 45 49 41 39 39 50 52 68 77 69 77 70 71 79 77 79 75 72 68 64 58 53 51 49 52 49 45 41 40 46
41 44 49 49 46 29 29 52 54 61 60 68 73 65 59 54 48 49 46 43 42 42 46 44 49 50 68 59 62 57 65 74 62 67 81 83 74 76 74 67 60 55 54 57 57 55 51 50 51
44 46 50 49 34 27 30 24 33 32 36 47 66 61 62 56 51 53 47 42 43 49 52 48 50 61 63 62 61 66 67 68 68 73 84 90 86 80 78 72 65 62 58 56 58 59 58 56 55
30 30 32 28 26 29 38 24 50 31 42 45 43 61 59 54 53 57 53 40 47 45 46 45 51 61 69 63 58 63 77 62 68 81 78 80 81 89 83 80 72 68 66 62 63 62 62 63 63
24 11 9 11 9 18 28 26 34 18 36 37 40 55 55 51 52 56 46 51 43 42 43 44 46 57 56 65 63 68 61 70 80 87 77 81 84 88 90 84 77 74 72 68 69 68 65 69 70
16 6 7 10 13 14 5 14 30 17 33 42 40 41 50 46 53 43 51 49 41 39 43 42 40 47 45 56 57 62 43 61 45 57 75 82 87 92 90 88 83 82 78 71 71 72 73 75 78
25 10 9 11 7 13 5 13 5 18 41 41 51 25 38 36 37 39 48 43 39 37 39 40 38 42 43 38 43 49 30 47 58 67 32 76 77 86 81 77 84 82 80 77 76 77 75 76 79
13 9 15 11 14 18 15 6 7 32 32 34 38 36 23 31 37 46 42 39 34 33 34 37 39 40 39 37 35 33 38 48 47 48 49 46 44 57 80 73 87 84 83 81 83 83 78 75 82
8 16 11 9 9 12 5 9 21 36 33 11 21 29 37 36 39 38 36 35 32 33 34 36 37 35 28 26 26 24 25 27 36 34 35 43 54 56 85 74 69 74 88 95 86 79 79 74 84
31 11 11 8 8 8 8 8 23 30 28 20 18 34 38 38 39 38 38 37 36 36 33 35 34 30 23 18 15 7 2 6 7 13 22 29 40 49 57 69 75 75 75 82 82 60 51 58 61
30 30 6 7 9 8 3 9 31 25 30 24 35 35 42 45 46 46 50 47 47 46 43 39 37 31 26 20 16 14 7 5 2 4 10 10 11 21 28 25 20 18 28 25 27 31 42 43 46
Wind_Direction_850mb
239 287 277 274 249 228 251 244 253 251 254 220 281 214 230 239 220 243 350 206 174 175 202 183 183 180 178 178 177 180 180 178 174 170 164 157 154 154 158 167 142 133 144 151 147 138 139 140 137
234 274 246 253 245 247 244 235 240 237 246 159 211 222 241 248 246 297 342 221 171 175 199 187 185 183 178 179 182 185 183 183 180 179 175 164 155 152 144 139 144 149 145 146 150 141 148 148 146
248 231 243 229 237 242 249 241 225 236 239 220 265 233 269 232 227 288 314 329 182 187 194 192 185 186 182 182 184 187 188 189 188 188 183 172 164 149 147 155 157 165 149 149 157 147 145 147 149
244 218 248 244 240 238 244 255 224 235 248 225 255 271 230 263 305 303 311 309 183 195 190 195 189 189 189 186 186 188 190 189 190 192 187 177 169 156 150 171 161 155 165 162 152 146 146 144 139
224 244 236 237 243 243 245 233 249 236 245 241 224 239 227 142 297 320 309 300 184 198 194 195 192 191 193 191 188 189 189 189 193 185 184 181 172 162 166 173 169 167 157 170 153 148 150 151 145
232 238 235 238 245 245 243 243 220 249 243 243 209 251 248 250 340 309 291 252 191 197 196 197 195 192 196 197 193 192 190 192 189 188 190 188 184 178 176 165 173 164 173 166 159 154 154 153 152
243 230 245 253 259 259 248 230 215 227 237 239 235 249 246 217 302 326 272 208 194 196 190 197 195 193 197 200 200 196 197 197 197 194 195 194 192 196 182 175 175 181 184 184 171 163 162 162 160
264 254 258 252 257 262 268 254 231 232 242 243 232 230 248 242 342 336 339 202 212 198 194 202 196 195 197 200 205 203 205 203 205 200 198 199 197 204 196 194 186 195 199 191 182 176 173 170 170
252 249 248 252 256 259 262 267 236 252 284 257 246 248 242 21 243 302 347 226 215 216 203 199 198 200 199 202 204 205 209 208 208 205 202 201 202 203 204 209 210 208 203 199 191 188 186 185 186
236 242 261 284 285 290 292 300 296 272 261 242 252 227 191 339 314 245 232 242 235 218 214 207 203 200 199 196 206 203 209 207 207 203 200 201 205 204 201 211 215 225 201 198 198 196 195 196 206
253 250 282 301 287 310 294 288 272 263 255 249 237 232 261 304 298 277 246 239 240 236 224 219 210 204 203 199 205 200 204 202 204 200 198 198 201 205 190 209 211 207 199 203 203 202 202 194 198
272 265 267 277 277 288 279 286 276 270 263 262 277 282 284 286 282 276 268 249 250 247 239 228 220 208 208 207 201 199 197 201 200 199 197 196 201 205 191 214 209 205 207 202 206 208 202 213 203
268 267 272 274 268 270 274 270 273 267 260 260 263 269 274 280 279 276 272 266 251 249 250 235 226 221 209 204 205 195 199 202 199 198 198 199 200 206 196 203 198 221 208 202 205 205 215 214 219
287 291 285 278 272 263 265 268 263 255 259 257 258 257 260 260 260 260 263 267 259 252 249 238 230 225 224 214 223 211 206 205 202 200 203 204 202 211 204 205 204 205 208 207 207 204 212 219 224
284 282 281 267 259 253 255 268 255 263 257 256 254 252 252 255 254 252 254 259 259 254 261 248 231 226 225 230 232 224 215 209 205 207 208 203 198 211 207 210 211 209 210 205 207 202 204 211 219
273 281 274 269 318 241 207 260 267 263 235 242 246 252 251 247 247 250 252 254 254 258 249 250 236 231 225 218 229 232 219 217 211 212 214 215 213 210 214 217 215 212 215 210 209 206 203 205 210
233 266 270 280 254 241 214 270 269 265 250 248 244 250 252 247 247 244 248 251 250 250 253 248 249 238 229 223 232 238 228 218 216 212 218 217 212 213 219 221 223 220 217 212 209 208 206 204 202
266 249 257 266 271 237 244 256 266 270 260 250 251 255 255 253 246 247 243 245 246 244 250 251 246 231 233 225 229 226 220 217 215 218 216 219 216 218 222 226 226 226 220 215 212 208 209 205 198
272 278 280 277 281 267 257 261 266 270 268 259 253 251 253 250 248 251 251 244 246 246 250 249 249 234 228 229 222 223 227 229 212 222 227 226 225 226 227 229 232 231 226 223 219 213 211 198 201
253 260 262 275 268 260 263 265 273 273 270 261 257 250 250 251 248 250 247 249 243 240 244 245 244 239 231 220 225 226 235 234 222 225 231 228 230 232 232 231 237 237 229 224 220 214 209 210 210
253 253 264 265 277 262 261 267 258 261 256 254 252 249 248 249 240 246 242 240 231 239 245 234 240 232 222 221 225 233 233 227 223 230 236 233 231 235 233 234 236 238 234 230 225 220 208 211 221
267 255 263 263 263 262 192 276 262 267 252 239 246 242 239 241 238 241 239 236 233 234 239 231 229 226 229 221 224 228 227 225 235 232 229 232 231 236 236 235 235 238 239 234 230 223 219 213 220
279 286 275 271 267 276 251 264 276 268 260 253 242 236 235 233 228 231 230 231 234 233 230 226 228 227 224 230 227 230 230 228 238 230 228 234 235 245 236 234 234 238 240 236 232 230 224 223 221
283 263 242 239 243 248 249 227 282 283 262 260 245 238 234 226 220 223 218 228 232 229 225 221 220 227 228 219 227 232 248 247 244 240 239 232 236 243 239 235 234 239 240 240 238 235 233 231 229
222 201 249 224 209 251 109 246 245 314 329 303 291 250 247 217 219 201 212 223 225 219 214 217 213 220 217 223 226 228 242 242 231 231 241 238 237 235 241 237 234 238 241 242 241 238 238 238 237
258 213 240 283 262 291 83 242 288 348 321 286 266 245 277 194 170 185 206 208 210 206 201 201 201 210 223 220 231 226 216 229 238 246 259 224 240 236 240 246 239 240 243 242 240 240 241 240 242
356 242 293 280 255 269 246 247 232 341 311 276 231 231 161 147 168 185 189 189 188 181 179 183 174 184 193 202 208 211 216 217 232 243 252 250 247 252 245 250 249 242 243 242 242 240 242 244 247
258 296 259 194 264 263 204 72 338 334 342 51 124 110 111 147 159 163 166 160 161 166 165 161 160 167 177 181 191 207 226 244 251 252 256 257 260 264 241 241 245 255 248 244 241 237 243 249 256
329 280 243 286 238 298 1 41 342 350 6 14 82 96 108 123 133 141 140 136 139 139 142 140 144 146 152 151 146 165 233 253 254 263 275 274 258 252 228 238 238 238 235 237 235 235 245 259 252
353 354 337 281 44 342 59 45 349 13 24 23 53 72 96 108 123 122 120 115 119 120 122 119 119 127 125 124 117 105 96 98 109 147 204 201 209 200 184 194 220 238 229 250 242 255 245 240 216